METEOR 2-5 DEB, 38275

Orbit data source: Space-Track

METEOR 2-5 DEB, 38275 is space debris in LEO originally from a launch on Wed, 31 Oct 1979 UTC launched from the Plesetsk Missile And Space Complex (PKMTR). Debris objects in space refer to the collection of defunct objects orbiting the Earth. Examples of debris include non-operational satellites, rocket bodies, and fragments generated from explosions, collisions, or faulty payload assembly.

Not visible in the next 10 days
Identifier
38275, 1979-095BV
Orbit
LEO
Country
Flag of CISCIS
Related business
Manufacturer
Unknown
Mission
Spacecraft
Bus & Motor
Unknown
Mass
Unknown
Launch date (UTC)
1979-10-31 (46 years ago)
Launch vehicle
Unknown
Launch site
Plesetsk Missile And Space Complex (PKMTR)
Object type
Payload
Rocket body
Debris
Shape & HBR
Unknown shape, 0.1 m
Radar Cross Section
Small (<0.1 m²)

Expand to show TLE details & history
Last TLE update: 1 year ago

TLE from 1 year ago
0 METEOR 2-5 DEB
1 38275U 79095BV  25001.44748984  .00081184  00000-0  18898-1 0  9998
2 38275  81.1576 262.7376 0014977  59.2819 300.9849 14.54280126596758
Epoch: 2025-01-01T10:44Z
TLE epoch observation values (Epoch: 2025-01-01T10:44:23.122Z)
Latitude
-0.00001°
Longitude
0.30062°
Altitude
709.204 km
Speed
7.504 km/s
True Right ascension
17h 30m 57s
True Declination
0° 00' 00"
Sunlit
Object was in daylight at epoch
Visualization orbit readout
Latitude
Unknown
Longitude
Unknown
Altitude
Unknown
Speed
Unknown
Apparent Right ascension
Unknown
Apparent Declination
Unknown
Sunlit
N/A
Visualization observer readout
Local Sidereal Time
11:45:41
Azimuth
Unknown
Elevation
Unknown
Doppler factor
Unknown
Orbital elements
Apogee altitude
719.437 km
Perigee altitude
698.209 km
Semi-major axis
7,086.96 km
Eccentricity
0.0015
Inclination
81.1576°
RAAN
262.7376°
Arg. of periapsis
59.2819°
True anomaly
300.83762°
Mean anomaly
300.9849°
Eccentric anomaly
300.91128°
Mean motion
3.63792 °/min
Orbital period
98.96 mins
BSTAR
0.018898
Loading maneuver chart data...
Computing Atmospheric mass density...
Loading historical data...
Loading historical data...
Loading historical data...
Loading historical data...
Loading historical data...
Loading historical data...
Loading historical data...

Documentation

Showing up to 5 results
|